Tracking 35331 objects as of 15-Sep-2026
HD Live streaming from Space Station
objects crossing your sky now

STARLINK-3920


STARLINK-3920 is no longer on orbit
STARLINK-3920 is classified as:


NORAD ID: 52575
Int'l Code: 2022-051AR
Launch date: May 13, 2022
Source: United States (US)
Launch site: AIR FORCE WESTERN TEST RANGE (AFWTR)
Decay date: 2026-02-19
Your satellite tracking list
Your tracking list is empty




NASA's NSSDC Master Catalog

Two Line Element Set (TLE):
1 52575U 22051AR  26050.57980853  .13117018  12671-4  12108-3 0  9990
2 52575  53.1809 103.4666 0003223 277.3175  82.7511 16.51283934210201
Source of the keplerian elements: AFSPC